Time,TemperatureF,DewpointF,PressureIn,WindDirection,WindDirectionDegrees,WindSpeedMPH,WindSpeedGustMPH,Humidity,HourlyPrecipIn,Conditions,Clouds,dailyrainin,SoftwareType,DateUTC
2013-04-16 00:02:00,25.0,25.0,-100.00,SE,130,1.0,5.0,99,0.00,,,-99.99,,2013-04-16 06:02:00,
2013-04-16 00:12:00,25.0,25.0,-100.00,West,260,4.0,6.0,99,0.00,,,-99.99,,2013-04-16 06:12:00,
2013-04-16 00:22:00,25.0,25.0,-100.00,West,280,1.0,6.0,99,0.00,,,-99.99,,2013-04-16 06:22:00,
2013-04-16 00:32:00,25.0,25.0,-100.00,East,80,0.0,4.0,99,0.00,,,-99.99,,2013-04-16 06:32:00,
2013-04-16 00:42:00,25.0,24.0,-100.00,West,265,1.0,2.0,99,0.00,,,-99.99,,2013-04-16 06:42:00,
2013-04-16 00:52:00,26.0,26.0,-100.00,WNW,285,9.0,12.0,99,0.00,,,-99.99,,2013-04-16 06:52:00,
2013-04-16 01:02:00,27.0,27.0,-100.00,WNW,285,13.0,14.0,99,0.00,,,-99.99,,2013-04-16 07:02:00,
2013-04-16 01:12:00,28.0,28.0,-100.00,WNW,285,14.0,16.0,99,0.00,,,-99.99,,2013-04-16 07:12:00,
2013-04-16 01:22:00,28.0,28.0,-100.00,West,280,16.0,17.0,99,0.00,,,-99.99,,2013-04-16 07:22:00,
2013-04-16 01:32:00,28.0,28.0,-100.00,WNW,285,12.0,18.0,99,0.00,,,-99.99,,2013-04-16 07:32:00,
2013-04-16 01:42:00,28.0,28.0,-100.00,West,275,11.0,14.0,99,0.00,,,-99.99,,2013-04-16 07:42:00,
2013-04-16 01:53:00,28.0,28.0,-100.00,West,270,6.0,11.0,99,0.00,,,-99.99,,2013-04-16 07:53:00,
2013-04-16 02:02:00,27.0,27.0,-100.00,West,270,4.0,7.0,99,0.00,,,-99.99,,2013-04-16 08:02:00,
2013-04-16 02:12:00,27.0,27.0,-100.00,West,275,7.0,10.0,99,0.00,,,-99.99,,2013-04-16 08:12:00,
2013-04-16 02:22:00,27.0,27.0,-100.00,West,265,8.0,14.0,99,0.00,,,-99.99,,2013-04-16 08:22:00,
2013-04-16 02:32:00,27.0,27.0,-100.00,WNW,285,6.0,12.0,99,0.00,,,-99.99,,2013-04-16 08:32:00,
2013-04-16 02:42:00,28.0,28.0,-100.00,WSW,255,4.0,9.0,99,0.00,,,-99.99,,2013-04-16 08:42:00,
2013-04-16 02:52:00,29.0,29.0,-100.00,SE,135,1.0,11.0,99,0.00,,,-99.99,,2013-04-16 08:52:00,
2013-04-16 03:02:00,29.0,29.0,-100.00,ESE,115,4.0,16.0,99,0.00,,,-99.99,,2013-04-16 09:02:00,
2013-04-16 03:12:00,29.0,29.0,-100.00,East,100,8.0,12.0,99,0.00,,,-99.99,,2013-04-16 09:12:00,
2013-04-16 03:22:00,29.0,29.0,-100.00,SE,130,6.0,12.0,99,0.00,,,-99.99,,2013-04-16 09:22:00,
2013-04-16 03:33:00,29.0,29.0,-100.00,East,100,11.0,14.0,99,0.00,,,-99.99,,2013-04-16 09:33:00,
2013-04-16 03:42:00,29.0,29.0,-100.00,ESE,120,5.0,16.0,99,0.00,,,-99.99,,2013-04-16 09:42:00,
2013-04-16 03:52:00,29.0,29.0,-100.00,SE,125,7.0,13.0,99,0.00,,,-99.99,,2013-04-16 09:52:00,
2013-04-16 04:03:00,29.0,28.0,-100.00,ESE,115,6.0,15.0,99,0.00,,,-99.99,,2013-04-16 10:03:00,
2013-04-16 04:13:00,28.0,28.0,-100.00,ESE,110,6.0,14.0,99,0.00,,,-99.99,,2013-04-16 10:13:00,
2013-04-16 04:23:00,28.0,28.0,-100.00,ESE,110,11.0,17.0,99,0.00,,,-99.99,,2013-04-16 10:23:00,
2013-04-16 04:33:00,28.0,28.0,-100.00,SE,140,9.0,15.0,99,0.00,,,-99.99,,2013-04-16 10:33:00,
2013-04-16 04:42:00,28.0,28.0,-100.00,East,100,9.0,17.0,98,0.00,,,-99.99,,2013-04-16 10:42:00,
2013-04-16 04:52:00,29.0,28.0,-100.00,East,100,9.0,19.0,96,0.00,,,-99.99,,2013-04-16 10:52:00,
2013-04-16 05:02:00,28.0,27.0,-100.00,ESE,115,7.0,17.0,94,0.00,,,-99.99,,2013-04-16 11:02:00,
2013-04-16 05:12:00,28.0,26.0,-100.00,ESE,115,7.0,18.0,91,0.00,,,-99.99,,2013-04-16 11:12:00,
2013-04-16 05:22:00,28.0,25.0,-100.00,ESE,120,6.0,16.0,88,0.00,,,-99.99,,2013-04-16 11:22:00,
2013-04-16 05:32:00,28.0,25.0,-100.00,ESE,105,8.0,12.0,86,0.00,,,-99.99,,2013-04-16 11:32:00,
2013-04-16 05:42:00,28.0,24.0,-100.00,East,95,9.0,16.0,84,0.00,,,-99.99,,2013-04-16 11:42:00,
2013-04-16 05:52:00,28.0,23.0,-100.00,ENE,70,7.0,13.0,81,0.00,,,-99.99,,2013-04-16 11:52:00,
2013-04-16 06:02:00,28.0,23.0,-100.00,East,90,7.0,11.0,80,0.00,,,-99.99,,2013-04-16 12:02:00,
2013-04-16 06:12:00,28.0,22.0,-100.00,ENE,70,6.0,11.0,79,0.00,,,-99.99,,2013-04-16 12:12:00,
2013-04-16 06:22:00,28.0,22.0,-100.00,East,90,5.0,9.0,79,0.00,,,-99.99,,2013-04-16 12:22:00,
2013-04-16 06:32:00,28.0,22.0,-100.00,East,80,4.0,11.0,78,0.00,,,-99.99,,2013-04-16 12:32:00,
2013-04-16 06:42:00,27.0,21.0,-100.00,East,80,4.0,7.0,78,0.00,,,-99.99,,2013-04-16 12:42:00,
2013-04-16 06:52:00,27.0,21.0,-100.00,ENE,75,9.0,12.0,78,0.00,,,-99.99,,2013-04-16 12:52:00,
2013-04-16 07:02:00,27.0,22.0,-100.00,East,85,7.0,12.0,78,0.00,,,-99.99,,2013-04-16 13:02:00,
2013-04-16 07:12:00,28.0,22.0,-100.00,East,85,9.0,12.0,77,0.00,,,-99.99,,2013-04-16 13:12:00,
2013-04-16 07:22:00,27.0,21.0,-100.00,East,100,6.0,13.0,76,0.00,,,-99.99,,2013-04-16 13:22:00,
2013-04-16 07:32:00,27.0,20.0,-100.00,East,90,6.0,10.0,76,0.00,,,-99.99,,2013-04-16 13:32:00,
2013-04-16 07:42:00,26.0,20.0,-100.00,East,80,4.0,7.0,76,0.00,,,-99.99,,2013-04-16 13:42:00,
2013-04-16 07:52:00,26.0,19.0,-100.00,East,90,4.0,7.0,76,0.00,,,-99.99,,2013-04-16 13:52:00,
2013-04-16 08:02:00,26.0,20.0,-100.00,East,85,6.0,7.0,76,0.00,,,-99.99,,2013-04-16 14:02:00,
2013-04-16 08:12:00,27.0,20.0,-100.00,NE,40,7.0,9.0,76,0.00,,,-99.99,,2013-04-16 14:12:00,
2013-04-16 08:22:00,28.0,22.0,-100.00,East,90,7.0,9.0,78,0.00,,,-99.99,,2013-04-16 14:22:00,
2013-04-16 08:32:00,30.0,24.0,-100.00,East,85,6.0,9.0,77,0.00,,,-99.99,,2013-04-16 14:32:00,
2013-04-16 08:42:00,31.0,24.0,-100.00,East,90,6.0,10.0,73,0.00,,,-99.99,,2013-04-16 14:42:00,
2013-04-16 08:52:00,33.0,24.0,-100.00,ENE,75,7.0,9.0,68,0.00,,,-99.99,,2013-04-16 14:52:00,
2013-04-16 09:02:00,33.0,23.0,-100.00,East,80,11.0,13.0,64,0.00,,,-99.99,,2013-04-16 15:02:00,
2013-04-16 09:12:00,34.0,22.0,-100.00,East,85,11.0,13.0,60,0.00,,,-99.99,,2013-04-16 15:12:00,
2013-04-16 09:22:00,35.0,22.0,-100.00,East,80,9.0,13.0,58,0.00,,,-99.99,,2013-04-16 15:22:00,
2013-04-16 09:33:00,36.0,23.0,-100.00,ENE,70,9.0,12.0,57,0.00,,,-99.99,,2013-04-16 15:33:00,
2013-04-16 09:43:00,38.0,24.0,-100.00,ENE,60,8.0,12.0,56,0.00,,,-99.99,,2013-04-16 15:43:00,
2013-04-16 09:53:00,40.0,24.0,-100.00,East,85,6.0,10.0,53,0.00,,,-99.99,,2013-04-16 15:53:00,
2013-04-16 10:03:00,40.0,24.0,-100.00,NE,40,9.0,9.0,52,0.00,,,-99.99,,2013-04-16 16:03:00,
2013-04-16 10:13:00,41.0,24.0,-100.00,ENE,65,6.0,11.0,52,0.00,,,-99.99,,2013-04-16 16:13:00,
2013-04-16 10:23:00,42.0,25.0,-100.00,NE,40,7.0,9.0,51,0.00,,,-99.99,,2013-04-16 16:23:00,
2013-04-16 10:32:00,43.0,26.0,-100.00,NNE,25,4.0,7.0,50,0.00,,,-99.99,,2013-04-16 16:32:00,
2013-04-16 10:42:00,45.0,26.0,-100.00,NNE,30,3.0,6.0,46,0.00,,,-99.99,,2013-04-16 16:42:00,
2013-04-16 10:52:00,47.0,24.0,-100.00,ENE,70,3.0,10.0,40,0.00,,,-99.99,,2013-04-16 16:52:00,
2013-04-16 11:02:00,49.0,24.0,-100.00,SE,125,2.0,5.0,37,0.00,,,-99.99,,2013-04-16 17:02:00,
2013-04-16 11:12:00,48.0,23.0,-100.00,East,85,6.0,9.0,36,0.00,,,-99.99,,2013-04-16 17:12:00,
2013-04-16 11:22:00,47.0,22.0,-100.00,ESE,120,9.0,14.0,36,0.00,,,-99.99,,2013-04-16 17:22:00,
2013-04-16 11:32:00,49.0,23.0,-100.00,SE,125,2.0,14.0,36,0.00,,,-99.99,,2013-04-16 17:32:00,
2013-04-16 11:43:00,48.0,22.0,-100.00,East,100,6.0,12.0,35,0.00,,,-99.99,,2013-04-16 17:43:00,
2013-04-16 11:52:00,48.0,22.0,-100.00,ESE,105,9.0,14.0,34,0.00,,,-99.99,,2013-04-16 17:52:00,
2013-04-16 12:02:00,49.0,22.0,-100.00,ENE,65,4.0,14.0,34,0.00,,,-99.99,,2013-04-16 18:02:00,
2013-04-16 12:12:00,50.0,23.0,-100.00,NE,40,3.0,6.0,34,0.00,,,-99.99,,2013-04-16 18:12:00,
2013-04-16 12:22:00,49.0,21.0,-100.00,ESE,110,9.0,15.0,32,0.00,,,-99.99,,2013-04-16 18:22:00,
2013-04-16 12:32:00,50.0,22.0,-100.00,ESE,105,5.0,12.0,32,0.00,,,-99.99,,2013-04-16 18:32:00,
2013-04-16 12:42:00,49.0,20.0,-100.00,East,95,6.0,16.0,32,0.00,,,-99.99,,2013-04-16 18:42:00,
2013-04-16 12:52:00,52.0,23.0,-100.00,SSE,160,1.0,13.0,32,0.00,,,-99.99,,2013-04-16 18:52:00,
2013-04-16 13:02:00,53.0,23.0,-100.00,South,170,1.0,4.0,30,0.00,,,-99.99,,2013-04-16 19:02:00,
2013-04-16 13:12:00,55.0,22.0,-100.00,SSE,155,2.0,6.0,28,0.00,,,-99.99,,2013-04-16 19:12:00,
2013-04-16 13:22:00,55.0,23.0,-100.00,North,0,1.0,4.0,28,0.00,,,-99.99,,2013-04-16 19:22:00,
2013-04-16 13:32:00,54.0,23.0,-100.00,West,265,7.0,11.0,28,0.00,,,-99.99,,2013-04-16 19:32:00,
2013-04-16 13:42:00,54.0,23.0,-100.00,SW,215,6.0,14.0,30,0.00,,,-99.99,,2013-04-16 19:42:00,
2013-04-16 13:52:00,52.0,24.0,-100.00,WSW,245,7.0,14.0,32,0.00,,,-99.99,,2013-04-16 19:52:00,
2013-04-16 14:02:00,52.0,24.0,-100.00,WNW,290,10.0,15.0,32,0.00,,,-99.99,,2013-04-16 20:02:00,
2013-04-16 14:12:00,51.0,23.0,-100.00,WNW,295,12.0,14.0,32,0.00,,,-99.99,,2013-04-16 20:12:00,
2013-04-16 14:22:00,52.0,23.0,-100.00,WNW,295,9.0,12.0,31,0.00,,,-99.99,,2013-04-16 20:22:00,
2013-04-16 14:32:00,52.0,23.0,-100.00,WNW,300,9.0,12.0,32,0.00,,,-99.99,,2013-04-16 20:32:00,
2013-04-16 14:42:00,53.0,24.0,-100.00,West,275,12.0,13.0,32,0.00,,,-99.99,,2013-04-16 20:42:00,
2013-04-16 14:52:00,52.0,23.0,-100.00,West,275,9.0,13.0,31,0.00,,,-99.99,,2013-04-16 20:52:00,
2013-04-16 15:02:00,53.0,23.0,-100.00,West,270,6.0,12.0,31,0.00,,,-99.99,,2013-04-16 21:02:00,
2013-04-16 15:12:00,54.0,23.0,-100.00,ESE,115,1.0,9.0,29,0.00,,,-99.99,,2013-04-16 21:12:00,
2013-04-16 15:22:00,51.0,21.0,-100.00,ESE,110,9.0,16.0,30,0.00,,,-99.99,,2013-04-16 21:22:00,
2013-04-16 15:32:00,51.0,21.0,-100.00,East,100,4.0,13.0,31,0.00,,,-99.99,,2013-04-16 21:32:00,
2013-04-16 15:43:00,52.0,21.0,-100.00,SE,145,6.0,12.0,29,0.00,,,-99.99,,2013-04-16 21:43:00,
2013-04-16 15:52:00,50.0,22.0,-100.00,WNW,295,16.0,20.0,32,0.00,,,-99.99,,2013-04-16 21:52:00,
2013-04-16 16:02:00,49.0,22.0,-100.00,WNW,295,13.0,17.0,33,0.00,,,-99.99,,2013-04-16 22:02:00,
2013-04-16 16:13:00,48.0,22.0,-100.00,WNW,295,15.0,17.0,35,0.00,,,-99.99,,2013-04-16 22:13:00,
2013-04-16 16:22:00,48.0,23.0,-100.00,WNW,300,13.0,18.0,36,0.00,,,-99.99,,2013-04-16 22:22:00,
2013-04-16 16:33:00,49.0,24.0,-100.00,WNW,290,11.0,16.0,37,0.00,,,-99.99,,2013-04-16 22:33:00,
2013-04-16 16:42:00,48.0,24.0,-100.00,WNW,295,13.0,16.0,38,0.00,,,-99.99,,2013-04-16 22:42:00,
2013-04-16 16:52:00,47.0,24.0,-100.00,WNW,290,15.0,19.0,40,0.00,,,-99.99,,2013-04-16 22:52:00,
2013-04-16 17:02:00,46.0,24.0,-100.00,WNW,290,14.0,19.0,41,0.00,,,-99.99,,2013-04-16 23:02:00,
2013-04-16 17:12:00,46.0,24.0,-100.00,WNW,295,17.0,22.0,42,0.00,,,-99.99,,2013-04-16 23:12:00,
2013-04-16 17:22:00,46.0,25.0,-100.00,WNW,290,16.0,20.0,43,0.00,,,-99.99,,2013-04-16 23:22:00,
2013-04-16 17:32:00,46.0,25.0,-100.00,WNW,285,14.0,21.0,44,0.00,,,-99.99,,2013-04-16 23:32:00,
2013-04-16 17:42:00,45.0,26.0,-100.00,WNW,295,15.0,21.0,45,0.00,,,-99.99,,2013-04-16 23:42:00,
2013-04-16 17:52:00,45.0,26.0,-100.00,WNW,295,14.0,18.0,47,0.00,,,-99.99,,2013-04-16 23:52:00,
2013-04-16 18:02:00,45.0,26.0,-100.00,WNW,295,15.0,18.0,48,0.00,,,-99.99,,2013-04-17 00:02:00,
2013-04-16 18:12:00,44.0,27.0,-100.00,WNW,290,14.0,21.0,49,0.00,,,-99.99,,2013-04-17 00:12:00,
2013-04-16 18:22:00,44.0,27.0,-100.00,WNW,295,14.0,17.0,50,0.00,,,-99.99,,2013-04-17 00:22:00,
2013-04-16 18:32:00,44.0,27.0,-100.00,West,280,12.0,16.0,51,0.00,,,-99.99,,2013-04-17 00:32:00,
2013-04-16 18:42:00,44.0,28.0,-100.00,WNW,295,12.0,16.0,52,0.00,,,-99.99,,2013-04-17 00:42:00,
2013-04-16 18:52:00,44.0,28.0,-100.00,WNW,295,13.0,16.0,53,0.00,,,-99.99,,2013-04-17 00:52:00,
2013-04-16 19:02:00,43.0,28.0,-100.00,WNW,290,12.0,16.0,54,0.00,,,-99.99,,2013-04-17 01:02:00,
2013-04-16 19:12:00,43.0,28.0,-100.00,West,275,10.0,15.0,56,0.00,,,-99.99,,2013-04-17 01:12:00,
2013-04-16 19:22:00,42.0,28.0,-100.00,WNW,295,10.0,14.0,56,0.00,,,-99.99,,2013-04-17 01:22:00,
2013-04-16 19:32:00,42.0,28.0,-100.00,WNW,295,12.0,15.0,57,0.00,,,-99.99,,2013-04-17 01:32:00,
2013-04-16 19:42:00,41.0,28.0,-100.00,WNW,285,11.0,14.0,58,0.00,,,-99.99,,2013-04-17 01:42:00,
2013-04-16 19:52:00,41.0,28.0,-100.00,WNW,285,12.0,14.0,60,0.00,,,-99.99,,2013-04-17 01:52:00,
2013-04-16 20:02:00,40.0,28.0,-100.00,WNW,300,12.0,15.0,60,0.00,,,-99.99,,2013-04-17 02:02:00,
2013-04-16 20:12:00,40.0,28.0,-100.00,WNW,295,13.0,16.0,60,0.00,,,-99.99,,2013-04-17 02:12:00,
2013-04-16 20:22:00,40.0,28.0,-100.00,NW,305,14.0,16.0,62,0.00,,,-99.99,,2013-04-17 02:22:00,
2013-04-16 20:32:00,40.0,28.0,-100.00,WNW,300,12.0,16.0,63,0.00,,,-99.99,,2013-04-17 02:32:00,
2013-04-16 20:42:00,39.0,28.0,-100.00,WNW,300,12.0,16.0,64,0.00,,,-99.99,,2013-04-17 02:42:00,
2013-04-16 20:52:00,39.0,29.0,-100.00,WNW,300,16.0,20.0,66,0.00,,,-99.99,,2013-04-17 02:52:00,
2013-04-16 21:02:00,37.0,28.0,-100.00,WNW,295,18.0,21.0,69,0.00,,,-99.99,,2013-04-17 03:02:00,
2013-04-16 21:12:00,36.0,28.0,-100.00,WNW,300,12.0,19.0,71,0.00,,,-99.99,,2013-04-17 03:12:00,
2013-04-16 21:22:00,36.0,28.0,-100.00,NW,305,11.0,14.0,73,0.00,,,-99.99,,2013-04-17 03:22:00,
2013-04-16 21:33:00,36.0,28.0,-100.00,NW,305,10.0,13.0,74,0.00,,,-99.99,,2013-04-17 03:33:00,
2013-04-16 21:42:00,35.0,28.0,-100.00,NW,305,10.0,13.0,75,0.00,,,-99.99,,2013-04-17 03:42:00,
2013-04-16 21:53:00,35.0,28.0,-100.00,NW,305,11.0,13.0,76,0.00,,,-99.99,,2013-04-17 03:53:00,
2013-04-16 22:03:00,35.0,28.0,-100.00,WNW,300,12.0,14.0,77,0.00,,,-99.99,,2013-04-17 04:03:00,
2013-04-16 22:13:00,34.0,28.0,-100.00,NW,305,12.0,15.0,77,0.00,,,-99.99,,2013-04-17 04:13:00,
2013-04-16 22:22:00,34.0,28.0,-100.00,WNW,290,11.0,16.0,78,0.00,,,-99.99,,2013-04-17 04:22:00,
2013-04-16 22:33:00,33.0,28.0,-100.00,WNW,300,8.0,14.0,78,0.00,,,-99.99,,2013-04-17 04:33:00,
2013-04-16 22:42:00,33.0,27.0,-100.00,WNW,300,11.0,13.0,79,0.00,,,-99.99,,2013-04-17 04:42:00,
2013-04-16 22:52:00,33.0,27.0,-100.00,WNW,300,12.0,15.0,80,0.00,,,-99.99,,2013-04-17 04:52:00,
2013-04-16 23:02:00,32.0,27.0,-100.00,WNW,300,16.0,19.0,80,0.00,,,-99.99,,2013-04-17 05:02:00,
2013-04-16 23:12:00,32.0,27.0,-100.00,WNW,300,15.0,18.0,81,0.00,,,-99.99,,2013-04-17 05:12:00,
2013-04-16 23:22:00,32.0,27.0,-100.00,WNW,295,14.0,20.0,82,0.00,,,-99.99,,2013-04-17 05:22:00,
2013-04-16 23:32:00,31.0,27.0,-100.00,WNW,285,11.0,19.0,82,0.00,,,-99.99,,2013-04-17 05:32:00,
2013-04-16 23:42:00,31.0,27.0,-100.00,West,280,9.0,14.0,82,0.00,,,-99.99,,2013-04-17 05:42:00,
2013-04-16 23:52:00,31.0,27.0,-100.00,WNW,295,12.0,15.0,82,0.00,,,-99.99,,2013-04-17 05:52:00,